Starlink 34215

operational
NORAD ID: 64252 Int'l Des: 2025-119 Owner: SPXS Country: US Constellation: starlink
LEOCIRCULAR

关于 Starlink 34215

正在加载描述...

实时位置

正在加载3D地球...

即将过境

高度历史

Altitude vs Time

uPlot chart will show altitude changes over time

两行轨道根数

1 64252U 25119V 25259.59335276 .00033063 00000-0 12037-2 0 9990
2 64252 43.0021 210.2437 0003765 267.6071 92.4349 15.27627504 17547
Epoch: Sep 16, 2025 • Age: 60 hours

当前状态

高度 481.7 km
速度 7.63 km/s
星下点 13.68°N, 176.34°W
发射日期 Jun 3, 2025
运行时间 0.2 years
类型 internet

技术详情

分类 Payload
质量 575.00 kg
干质量 530.00 kg
总质量 575.00 kg
长度 0.30 m
直径 4.10 m
跨度 29.00 m
形状 Box + pan
制造商 SPXS
平台类型 Starlink V2MO
阶段状态 In Orbit
所有者/国家 SPXS/US

大型星座

Loading constellations...